H1 CPF 2 NER 2022 4 12 9 102 01 glonass116 H2 0907001 9116 36111 2022 4 12 0 0 0 2022 4 15 23 45 0 900 1 1 0 0 0 1 H9 10 0 59681 0.00000 0 10138135.995 4972073.293 22881140.175 10 0 59681 900.00000 0 9615251.293 7710259.167 22342834.546 10 0 59681 1800.00000 0 9302822.244 10386739.229 21371068.636 10 0 59681 2700.00000 0 9193031.781 12933900.807 19984725.214 10 0 59681 3600.00000 0 9266351.586 15287883.692 18210714.112 10 0 59681 4500.00000 0 9492491.795 17391018.176 16083452.136 10 0 59681 5400.00000 0 9831817.096 19194015.078 13644198.955 10 0 59681 6300.00000 0 10237169.476 20657817.695 10940261.186 10 0 59681 7200.00000 0 10656020.849 21755039.272 8024079.607 10 0 59681 8100.00000 0 11032864.874 22470926.852 4952216.578 10 0 59681 9000.00000 0 11311747.157 22803811.765 1784262.804 10 0 59681 9900.00000 0 11438826.953 22765028.348 -1418315.594 10 0 59681 10800.00000 0 11364862.052 22378304.687 -4593367.529 10 0 59681 11700.00000 0 11047511.464 21678651.166 -7679261.880 10 0 59681 12600.00000 0 10453358.058 20710793.682 -10616083.325 10 0 59681 13500.00000 0 9559564.924 19527217.498 -13346795.764 10 0 59681 14400.00000 0 8355094.471 18185904.003 -15818350.580 10 0 59681 15300.00000 0 6841437.640 16747855.556 -17982718.011 10 0 59681 16200.00000 0 5032821.063 15274512.431 -19797821.576 10 0 59681 17100.00000 0 2955881.860 13825170.280 -21228357.398 10 0 59681 18000.00000 0 648822.077 12454506.503 -22246482.467 10 0 59681 18900.00000 0 -1839923.459 11210319.216 -22832358.590 10 0 59681 19800.00000 0 -4453451.875 10131573.471 -22974541.441 10 0 59681 20700.00000 0 -7128517.229 9246836.565 -22670207.066 10 0 59681 21600.00000 0 -9797928.491 8573167.845 -21925211.294 10 0 59681 22500.00000 0 -12393121.652 8115509.350 -20753980.585 10 0 59681 23400.00000 0 -14846799.560 7866602.679 -19179236.017 10 0 59681 24300.00000 0 -17095530.120 7807435.270 -17231555.322 10 0 59681 25200.00000 0 -19082194.911 7908196.985 -14948780.951 10 0 59681 26100.00000 0 -20758186.227 8129706.308 -12375285.303 10 0 59681 27000.00000 0 -22085260.901 8425245.508 -9561107.116 10 0 59681 27900.00000 0 -23036973.520 8742726.636 -6560975.700 10 0 59681 28800.00000 0 -23599629.115 9027096.078 -3433242.229 10 0 59681 29700.00000 0 -23772715.761 9222875.058 -238739.290 10 0 59681 30600.00000 0 -23568799.390 9276727.610 2960408.569 10 0 59681 31500.00000 0 -23012885.965 9139946.330 6101999.242 10 0 59681 32400.00000 0 -22141278.709 8770749.673 9124968.082 10 0 59681 33300.00000 0 -20999979.464 8136292.675 11970579.101 10 0 59681 34200.00000 0 -19642702.473 7214305.286 14583568.571 10 0 59681 35100.00000 0 -18128585.061 5994288.416 16913218.463 10 0 59681 36000.00000 0 -16519692.178 4478216.614 18914338.852 10 0 59681 36900.00000 0 -14878420.150 2680717.303 20548140.412 10 0 59681 37800.00000 0 -13264908.681 628718.467 21782980.656 10 0 59681 38700.00000 0 -11734569.355 -1639421.047 22594970.220 10 0 59681 39600.00000 0 -10335833.605 -4075262.828 22968428.261 10 0 59681 40500.00000 0 -9108213.465 -6622066.201 22896179.064 10 0 59681 41400.00000 0 -8080755.091 -9216918.340 22379684.882 10 0 59681 42300.00000 0 -7270948.509 -11793129.466 21429013.018 10 0 59681 43200.00000 0 -6684137.887 -14282794.587 20062638.143 10 0 59681 44100.00000 0 -6313455.793 -16619416.432 18307083.722 10 0 59681 45000.00000 0 -6140283.185 -18740481.505 16196409.324 10 0 59681 45900.00000 0 -6135214.946 -20589883.177 13771553.344 10 0 59681 46800.00000 0 -6259489.817 -22120091.847 11079543.302 10 0 59681 47700.00000 0 -6466824.163 -23293982.426 8172588.456 10 0 59681 48600.00000 0 -6705572.123 -24086243.495 5107071.759 10 0 59681 49500.00000 0 -6921120.850 -24484309.711 1942460.157 10 0 59681 50400.00000 0 -7058419.640 -24488778.658 -1259845.866 10 0 59681 51300.00000 0 -7064535.901 -24113294.876 -4437701.395 10 0 59681 52200.00000 0 -6891129.591 -23383905.978 -7529421.832 10 0 59681 53100.00000 0 -6496741.087 -22337917.842 -10474979.703 10 0 59681 54000.00000 0 -5848795.065 -21022296.887 -13217170.206 10 0 59681 54900.00000 0 -4925234.864 -19491686.410 -15702722.693 10 0 59681 55800.00000 0 -3715717.246 -17806120.159 -17883336.324 10 0 59681 56700.00000 0 -2222315.863 -16028528.913 -19716619.706 10 0 59681 57600.00000 0 -459702.322 -14222144.493 -21166916.295 10 0 59681 58500.00000 0 1545204.360 -12447909.812 -22205999.496 10 0 59681 59400.00000 0 3754106.892 -10762003.233 -22813624.038 10 0 59681 60300.00000 0 6118682.747 -9213580.571 -22977922.937 10 0 59681 61200.00000 0 8582366.042 -7842829.005 -22695642.222 10 0 59681 62100.00000 0 11082485.284 -6679413.967 -21972208.727 10 0 59681 63000.00000 0 13552669.012 -5741383.640 -20821629.311 10 0 59681 63900.00000 0 15925419.830 -5034576.557 -19266223.033 10 0 59681 64800.00000 0 18134750.169 -4552556.618 -17336191.054 10 0 59681 65700.00000 0 20118770.180 -4277077.676 -15069032.069 10 0 59681 66600.00000 0 21822119.793 -4179057.553 -12508814.272 10 0 59681 67500.00000 0 23198143.323 -4220019.696 -9705317.721 10 0 59681 68400.00000 0 24210715.529 -4353940.837 -6713063.667 10 0 59681 69300.00000 0 24835642.512 -4529425.714 -3590249.955 10 0 59681 70200.00000 0 25061578.730 -4692115.872 -397613.610 10 0 59681 71100.00000 0 24890421.796 -4787229.526 2802756.724 10 0 59681 72000.00000 0 24337168.795 -4762123.902 5948634.503 10 0 59681 72900.00000 0 23429240.757 -4568770.438 8978870.795 10 0 59681 73800.00000 0 22205304.381 -4166037.112 11834587.222 10 0 59681 74700.00000 0 20713641.351 -3521680.444 14460322.433 10 0 59681 75600.00000 0 19010134.612 -2613962.239 16805109.526 10 0 59681 76500.00000 0 17155956.798 -1432822.178 18823463.444 10 0 59681 77400.00000 0 15215058.350 19443.683 20476259.318 10 0 59681 78300.00000 0 13251560.745 1728027.551 21731485.342 10 0 59681 79200.00000 0 11327163.783 3665984.736 22564856.259 10 0 59681 80100.00000 0 9498674.905 5795123.549 22960276.457 10 0 59681 81000.00000 0 7815762.867 8067373.715 22910144.565 10 0 59681 81900.00000 0 6319028.420 10426577.029 22415494.464 10 0 59681 82800.00000 0 5038471.249 12810626.414 21485970.567 10 0 59681 83700.00000 0 3992415.710 15153865.316 20139638.214 10 0 59681 84600.00000 0 3186938.769 17389648.592 18402632.917 10 0 59681 85500.00000 0 2615822.774 19452959.215 16308655.104 10 0 59682 0.00000 0 2261033.822 21282972.670 13898319.960 10 0 59682 900.00000 0 2093704.518 22825463.942 11218373.064 10 0 59682 1800.00000 0 2075579.570 24034954.901 8320789.770 10 0 59682 2700.00000 0 2160862.150 24876516.206 5261770.855 10 0 59682 3600.00000 0 2298383.412 25327146.167 2100656.627 10 0 59682 4500.00000 0 2434003.073 25376669.974 -1101221.020 10 0 59682 5400.00000 0 2513139.469 25028121.433 -4281726.301 10 0 59682 6300.00000 0 2483321.827 24297591.041 -7379124.026 10 0 59682 7200.00000 0 2296656.461 23213546.533 -10333277.313 10 0 59682 8100.00000 0 1912102.053 21815654.131 -13086815.196 10 0 59682 9000.00000 0 1297457.127 20153149.607 -15586247.304 10 0 59682 9900.00000 0 430974.857 18282827.184 -17783003.745 10 0 59682 10800.00000 0 -697464.040 16266730.210 -19634379.977 10 0 59682 11700.00000 0 -2085671.099 14169639.995 -21104368.295 10 0 59682 12600.00000 0 -3718992.617 12056467.601 -22164359.755 10 0 59682 13500.00000 0 -5570683.115 9989657.299 -22793702.972 10 0 59682 14400.00000 0 -7602795.696 8026709.804 -22980108.964 10 0 59682 15300.00000 0 -9767553.545 6217928.445 -22719894.056 10 0 59682 16200.00000 0 -12009146.694 4604481.899 -22018056.007 10 0 59682 17100.00000 0 -14265880.220 3216863.980 -20888181.560 10 0 59682 18000.00000 0 -16472585.126 2073814.319 -19352186.809 10 0 59682 18900.00000 0 -18563191.927 1181744.498 -17439894.968 10 0 59682 19800.00000 0 -20473359.899 534692.930 -15188459.227 10 0 59682 20700.00000 0 -22143052.144 114809.643 -12641641.528 10 0 59682 21600.00000 0 -23518948.709 -106650.335 -9848960.984 10 0 59682 22500.00000 0 -24556596.446 -167867.840 -6864728.371 10 0 59682 23400.00000 0 -25222205.170 -114597.251 -3746985.699 10 0 59682 24300.00000 0 -25494014.456 2019.134 -556371.849 10 0 59682 25200.00000 0 -25363173.539 127866.427 2645063.058 10 0 59682 26100.00000 0 -24834097.265 208398.776 5795070.686 10 0 59682 27000.00000 0 -23924283.410 191198.483 8832420.488 10 0 59682 27900.00000 0 -22663599.364 28443.233 11698094.342 10 0 59682 28800.00000 0 -21093068.740 -320823.929 14336435.859 10 0 59682 29700.00000 0 -19263209.449 -888718.617 16696231.726 10 0 59682 30600.00000 0 -17231993.526 -1696917.242 18731704.003 10 0 59682 31500.00000 0 -15062514.692 -2755505.124 20403394.279 10 0 59682 32400.00000 0 -12820461.470 -4062319.501 21678923.081 10 0 59682 33300.00000 0 -10571501.383 -5602815.488 22533610.573 10 0 59682 34200.00000 0 -8378685.078 -7350460.988 22950947.310 10 0 59682 35100.00000 0 -6299977.879 -9267644.567 22922906.853 10 0 59682 36000.00000 0 -4386020.552 -11307058.973 22450094.970 10 0 59682 36900.00000 0 -2678211.340 -13413503.235 21541733.142 10 0 59682 37800.00000 0 -1207187.681 -15526029.022 20215477.057 10 0 59682 38700.00000 0 8230.662 -17580342.693 18497073.698 10 0 59682 39600.00000 0 961594.413 -19511363.747 16419863.507 10 0 59682 40500.00000 0 1658851.890 -21255833.874 14024136.902 10 0 59682 41400.00000 0 2117850.534 -22754868.506 11356357.029 10 0 59682 42300.00000 0 2367334.765 -23956344.860 8468263.292 10 0 59682 43200.00000 0 2445483.110 -24817027.080 5415872.435 10 0 59682 44100.00000 0 2398046.824 -25304339.778 2258396.021 10 0 59682 45000.00000 0 2276168.876 -25397715.607 -942904.956 10 0 59682 45900.00000 0 2133975.765 -25089460.262 -4125906.354 10 0 59682 46800.00000 0 2026044.228 -24385098.241 -7228825.085 10 0 59682 47700.00000 0 2004850.295 -23303184.396 -10191417.727 10 0 59682 48600.00000 0 2118308.968 -21874588.688 -12956150.147 10 0 59682 49500.00000 0 2407509.141 -20141283.542 -15469315.318 10 0 59682 50400.00000 0 2904740.115 -18154684.086 -17682077.363 10 0 59682 51300.00000 0 3631893.977 -15973610.252 -19551421.551 10 0 59682 52200.00000 0 4599312.243 -13661955.407 -21040991.764 10 0 59682 53100.00000 0 5805126.564 -11286158.567 -22121799.143 10 0 59682 54000.00000 0 7235122.586 -8912585.194 -22772788.245 10 0 59682 54900.00000 0 8863134.149 -6604925.394 -22981249.699 10 0 59682 55800.00000 0 10651952.696 -4421717.593 -22743071.277 10 0 59682 56700.00000 0 12554715.209 -2414100.426 -22062822.351 10 0 59682 57600.00000 0 14516713.857 -623886.017 -20953669.774 10 0 59682 58500.00000 0 16477552.601 917965.449 -19437126.439 10 0 59682 59400.00000 0 18373561.347 2192406.872 -17542636.913 10 0 59682 60300.00000 0 20140367.125 3192857.441 -15307007.704 10 0 59682 61200.00000 0 21715514.740 3925225.556 -12773692.820 10 0 59682 62100.00000 0 23041027.064 4407401.459 -9991948.243 10 0 59682 63000.00000 0 24065797.294 4668242.000 -7015871.606 10 0 59682 63900.00000 0 24747712.291 4746091.438 -3903345.989 10 0 59682 64800.00000 0 25055417.369 4686901.931 -714908.712 10 0 59682 65700.00000 0 24969647.883 4542034.455 2487432.273 10 0 59682 66600.00000 0 24484071.325 4365834.387 5641410.556 10 0 59682 67500.00000 0 23605604.346 4213085.632 8685717.652 10 0 59682 68400.00000 0 22354191.411 4136452.187 11561199.201 10 0 59682 69300.00000 0 20762054.614 4184016.377 14212007.035 10 0 59682 70200.00000 0 18872446.469 4397018.696 16586684.361 10 0 59682 71100.00000 0 16737958.323 4807895.385 18639162.946 10 0 59682 72000.00000 0 14418455.601 5438696.957 20329653.033 10 0 59682 72900.00000 0 11978726.376 6299954.649 21625409.314 10 0 59682 73800.00000 0 9485941.377 7390042.736 22501358.788 10 0 59682 74700.00000 0 7007031.072 8695063.673 22940579.186 10 0 59682 75600.00000 0 4606088.390 10189261.209 22934619.571 10 0 59682 76500.00000 0 2341904.206 11835944.545 22483657.714 10 0 59682 77400.00000 0 265736.939 13588885.375 21596491.813 10 0 59682 78300.00000 0 -1580592.405 15394130.078 20290367.096 10 0 59682 79200.00000 0 -3166202.016 17192152.102 18590640.764 10 0 59682 80100.00000 0 -4472186.877 18920255.405 16530291.631 10 0 59682 81000.00000 0 -5492150.408 20515129.331 14149283.582 10 0 59682 81900.00000 0 -6232209.400 21915448.856 11493794.620 10 0 59682 82800.00000 0 -6710473.191 23064411.949 8615325.902 10 0 59682 83700.00000 0 -6956019.974 23912108.248 5569707.447 10 0 59682 84600.00000 0 -7007414.104 24417619.941 2416019.249 10 0 59682 85500.00000 0 -6910827.402 24550766.670 -784551.531 10 0 59683 0.00000 0 -6717844.209 24293421.017 -3969895.085 10 0 59683 900.00000 0 -6483043.124 23640338.645 -7078183.980 10 0 59683 1800.00000 0 -6261458.195 22599468.063 -10049070.857 10 0 59683 2700.00000 0 -6106026.903 21191725.801 -12824861.186 10 0 59683 3600.00000 0 -6065133.458 19450245.885 -15351633.854 10 0 59683 4500.00000 0 -6180351.646 17419134.169 -17580289.338 10 0 59683 5400.00000 0 -6484483.182 15151778.911 -19467504.807 10 0 59683 6300.00000 0 -6999975.135 12708787.373 -20976577.545 10 0 59683 7200.00000 0 -7737784.034 10155634.023 -22078140.325 10 0 59683 8100.00000 0 -8696735.526 7560117.720 -22750734.879 10 0 59683 9000.00000 0 -9863407.716 4989733.239 -22981232.361 10 0 59683 9900.00000 0 -11212544.254 2509066.122 -22765092.530 10 0 59683 10800.00000 0 -12707981.087 177318.704 -22106456.491 10 0 59683 11700.00000 0 -14304049.159 -1953930.237 -21018070.883 10 0 59683 12600.00000 0 -15947395.214 -3842639.364 -19521044.600 10 0 59683 13500.00000 0 -17579145.173 -5457813.108 -17644442.319 10 0 59683 14400.00000 0 -19137319.921 -6780542.143 -15424722.200 10 0 59683 15300.00000 0 -20559402.360 -7804533.261 -12905028.308 10 0 59683 16200.00000 0 -21784947.948 -8536107.404 -10134351.211 10 0 59683 17100.00000 0 -22758128.768 -8993666.982 -7166572.913 10 0 59683 18000.00000 0 -23430103.668 -9206655.999 -4059414.926 10 0 59683 18900.00000 0 -23761114.163 -9214058.082 -873310.278 10 0 59683 19800.00000 0 -23722217.282 -9062497.157 2329778.055 10 0 59683 20700.00000 0 -23296581.807 -8804022.285 5487568.450 10 0 59683 21600.00000 0 -22480292.911 -8493671.708 8538677.351 10 0 59683 22500.00000 0 -21282631.045 -8186920.332 11423817.011 10 0 59683 23400.00000 0 -19725813.236 -7937119.655 14086950.234 10 0 59683 24300.00000 0 -17844207.691 -7793039.257 16476379.354 10 0 59683 25200.00000 0 -15683054.752 -7796614.331 18545748.198 10 0 59683 26100.00000 0 -13296747.900 -7980994.715 20254937.715 10 0 59683 27000.00000 0 -10746746.734 -8368977.868 21570838.437 10 0 59683 27900.00000 0 -8099208.864 -8971891.805 22467985.485 10 0 59683 28800.00000 0 -5422439.146 -9788974.951 22929044.649 10 0 59683 29700.00000 0 -2784261.799 -10807278.919 22945140.996 10 0 59683 30600.00000 0 -249423.742 -12002098.423 22516024.468 10 0 59683 31500.00000 0 2122863.963 -13337910.446 21650069.848 10 0 59683 32400.00000 0 4281145.824 -14769783.754 20364111.505 10 0 59683 33300.00000 0 6183611.984 -16245200.226 18683116.219 10 0 59683 34200.00000 0 7799581.512 -17706212.390 16639700.298 10 0 59683 35100.00000 0 9110518.668 -19091847.480 14273499.970 10 0 59683 36000.00000 0 10110541.234 -20340657.988 11630406.702 10 0 59683 36900.00000 0 10806400.894 -21393312.328 8761681.734 10 0 59683 37800.00000 0 11216937.642 -22195117.355 5722966.413 10 0 59683 38700.00000 0 11372032.079 -22698367.044 2573206.965 10 0 59683 39600.00000 0 11311100.319 -22864418.618 -626485.702 10 0 59683 40500.00000 0 11081195.512 -22665408.582 -3814019.277 10 0 59683 41400.00000 0 10734796.482 -22085536.007 -6927523.562 10 0 59683 42300.00000 0 10327377.135 -21121858.388 -9906550.670 10 0 59683 43200.00000 0 9914859.648 -19784565.762 -12693248.549 10 0 59683 44100.00000 0 9551059.313 -18096720.533 -15233484.892 10 0 59683 45000.00000 0 9285229.319 -16093472.900 -17477899.377 10 0 59683 45900.00000 0 9159809.536 -13820783.656 -19382863.786 10 0 59683 46800.00000 0 9208474.810 -11333706.706 -20911331.326 10 0 59683 47700.00000 0 9454565.645 -8694302.101 -22033558.630 10 0 59683 48600.00000 0 9909968.081 -5969265.722 -22727686.491 10 0 59683 49500.00000 0 10574490.756 -3227373.485 -22980168.075 10 0 59683 50400.00000 0 11435766.210 -536845.815 -22786036.190 10 0 59683 51300.00000 0 12469681.518 2037258.675 -22149004.312 10 0 59683 52200.00000 0 13641321.109 4435512.513 -21081399.075 10 0 59683 53100.00000 0 14906382.969 6606349.426 -19603925.172 10 0 59683 54000.00000 0 16213009.473 8507962.904 -17745266.760 10 0 59683 54900.00000 0 17503956.447 10109794.699 -15541532.600 10 0 59683 55800.00000 0 18719009.477 11393551.759 -13035555.323 10 0 59683 56700.00000 0 19797545.894 12353709.859 -10276058.146 10 0 59683 57600.00000 0 20681134.305 12997483.774 -7316705.083 10 0 59683 58500.00000 0 21316061.717 13344266.234 -4215053.336 10 0 59683 59400.00000 0 21655681.108 13424560.534 -1031428.567 10 0 59683 60300.00000 0 21662479.782 13278453.018 2172254.510 10 0 59683 61200.00000 0 21309780.552 12953691.275 5333702.452 10 0 59683 62100.00000 0 20583003.413 12503450.520 8391460.041 10 0 59683 63000.00000 0 19480433.953 11983883.855 11286109.445 10 0 59683 63900.00000 0 18013465.820 11451561.026 13961427.576 10 0 59683 64800.00000 0 16206306.752 10960904.832 16365478.792 10 0 59683 65700.00000 0 14095160.328 10561734.069 18451621.619 10 0 59683 66600.00000 0 11726917.661 10297017.088 20179410.053 10 0 59683 67500.00000 0 9157413.589 10200930.746 21515372.486 10 0 59683 68400.00000 0 6449319.917 10297306.397 22433653.839 10 0 59683 69300.00000 0 3669763.166 10598528.015 22916509.254 10 0 59683 70200.00000 0 887765.347 11104928.456 22954640.684 10 0 59683 71100.00000 0 -1828386.731 11804708.903 22547370.658 10 0 59683 72000.00000 0 -4413735.308 12674384.714 21702650.477 10 0 59683 72900.00000 0 -6809102.270 13679738.938 20436903.087 10 0 59683 73800.00000 0 -8963296.114 14777243.723 18774703.796 10 0 59683 74700.00000 0 -10834984.930 15915890.292 16748304.901 10 0 59683 75600.00000 0 -12394158.974 17039351.228 14397013.082 10 0 59683 76500.00000 0 -13623123.318 18088384.823 11766431.060 10 0 59683 77400.00000 0 -14516980.327 19003380.996 8907577.725 10 0 59683 78300.00000 0 -15083583.001 19726942.199 5875903.140 10 0 59683 79200.00000 0 -15342962.048 20206390.989 2730217.045 10 0 59683 80100.00000 0 -15326251.535 20396098.744 -468448.699 10 0 59683 81000.00000 0 -15074158.884 20259537.270 -3658021.841 10 0 59683 81900.00000 0 -14635044.181 19770966.385 -6776592.849 10 0 59683 82800.00000 0 -14062690.052 18916685.748 -9763615.851 10 0 59683 83700.00000 0 -13413856.541 17695797.280 -12561084.037 10 0 59683 84600.00000 0 -12745724.400 16120445.018 -15114656.531 10 0 59683 85500.00000 0 -12113334.909 14215521.126 -17374714.649 10 0 59684 0.00000 0 -11567134.535 12017849.283 -19297326.839 10 0 59684 900.00000 0 -11150727.968 9574877.085 -20845104.520 10 0 59684 1800.00000 0 -10898935.267 6942933.924 -21987929.646 10 0 59684 2700.00000 0 -10836234.331 4185121.878 -22703543.414 10 0 59684 3600.00000 0 -10975655.490 1368929.339 -22977981.995 10 0 59684 4500.00000 0 -11318174.926 -1436335.320 -22805851.881 10 0 59684 5400.00000 0 -11852633.030 -4162183.934 -22190439.142 10 0 59684 6300.00000 0 -12556181.765 -6743553.533 -21143650.213 10 0 59684 7200.00000 0 -13395242.770 -9121268.296 -19685784.947 10 0 59684 8100.00000 0 -14326936.393 -11244256.594 -17845145.917 10 0 59684 9000.00000 0 -15300921.935 -13071431.304 -15657491.021 10 0 59684 9900.00000 0 -16261571.770 -14573155.414 -13165339.656 10 0 59684 10800.00000 0 -17150387.750 -15732232.346 -10417145.610 10 0 59684 11700.00000 0 -17908557.752 -16544380.262 -7466352.616 10 0 59684 12600.00000 0 -18479544.036 -17018171.286 -4370351.112 10 0 59684 13500.00000 0 -18811593.523 -17174439.255 -1189356.827 10 0 59684 14400.00000 0 -18860063.222 -17045182.073 2014766.452 10 0 59684 15300.00000 0 -18589461.786 -16672006.157 5179716.213 10 0 59684 16200.00000 0 -17975120.243 -16104179.930 8243968.369 10 0 59684 17100.00000 0 -17004420.633 -15396379.777 11147977.826 10 0 59684 18000.00000 0 -15677530.219 -14606224.781 13835338.392 10 0 59684 18900.00000 0 -14007609.838 -13791705.283 16253879.127 10 0 59684 19800.00000 0 -12020487.219 -13008614.452 18356675.751 10 0 59684 20700.00000 0 -9753808.707 -12308091.558 20102957.536 10 0 59684 21600.00000 0 -7255704.526 -11734380.546 21458892.641 10 0 59684 22500.00000 0 -4583022.958 -11322898.016 22398237.319 10 0 59684 23400.00000 0 -1799206.656 -11098691.437 22902837.211 10 0 59684 24300.00000 0 1028101.202 -11075351.793 22962971.923 10 0 59684 25200.00000 0 3829622.203 -11254425.677 22577536.987 10 0 59684 26100.00000 0 6537073.839 -11625350.954 21754060.305 10 0 59684 27000.00000 0 9085758.423 -12165918.233 20508553.189 10 0 59684 27900.00000 0 11417003.613 -12843238.543 18865198.988 10 0 59684 28800.00000 0 13480354.409 -13615176.523 16855885.225 10 0 59684 29700.00000 0 15235426.868 -14432189.070 14519587.973 10 0 59684 30600.00000 0 16653347.669 -15239492.456 11901619.842 10 0 59684 31500.00000 0 17717720.594 -15979467.097 9052755.658 10 0 59684 32400.00000 0 18425080.685 -16594199.057 6028252.164 10 0 59684 33300.00000 0 18784817.950 -17028051.491 2886780.243 10 0 59684 34200.00000 0 18818574.522 -17230157.674 -310709.922 10 0 59684 35100.00000 0 18559141.223 -17156730.365 -3502168.977 10 0 59684 36000.00000 0 18048900.365 -16773089.681 -6625651.011 10 0 59684 36900.00000 0 17337880.693 -16055323.343 -9620515.168 10 0 59684 37800.00000 0 16481506.650 -14991508.408 -12428602.848 10 0 59684 38700.00000 0 15538137.024 -13582441.894 -14995367.503 10 0 59684 39600.00000 0 14566496.843 -11841848.312 -17270934.856 10 0 59684 40500.00000 0 13623110.872 -9796053.948 -19211072.935 10 0 59684 41400.00000 0 12759846.901 -7483140.038 -20778053.056 10 0 59684 42300.00000 0 12021672.402 -4951608.853 -21941384.977 10 0 59684 43200.00000 0 11444719.034 -2258616.952 -22678412.071 10 0 59684 44100.00000 0 11054736.604 532152.046 -22974754.935 10 0 59684 45000.00000 0 10866001.612 3352887.662 -22824594.757 10 0 59684 45900.00000 0 10880726.535 6134226.899 -22230790.819 10 0 59684 46800.00000 0 11088994.863 8807896.495 -21204829.554 10 0 59684 47700.00000 0 11469224.894 11309313.785 -19766605.774 10 0 59684 48600.00000 0 11989142.952 13580038.520 -17944039.859 10 0 59684 49500.00000 0 12607225.183 15569973.997 -15772537.832 10 0 59684 50400.00000 0 13274547.203 17239226.050 -13294304.424 10 0 59684 51300.00000 0 13936963.425 18559542.710 -10557522.150 10 0 59684 52200.00000 0 14537523.787 19515274.829 -7615412.216 10 0 59684 53100.00000 0 15019025.260 20103817.986 -4525195.679 10 0 59684 54000.00000 0 15326589.659 20335517.915 -1346975.403 10 0 59684 54900.00000 0 15410157.939 20233044.394 1857438.906 10 0 59684 55800.00000 0 15226794.675 19830260.975 5025738.955 10 0 59684 56700.00000 0 14742704.394 19170639.413 8096335.110 10 0 59684 57600.00000 0 13934873.759 18305286.793 11009558.270 10 0 59684 58500.00000 0 12792269.532 17290669.715 13708822.253 10 0 59684 59400.00000 0 11316541.165 16186132.470 16141723.745 10 0 59684 60300.00000 0 9522197.864 15051314.559 18261058.341 10 0 59684 61200.00000 0 7436252.214 13943576.773 20025733.008 10 0 59684 62100.00000 0 5097344.831 12915544.282 21401557.784 10 0 59684 63000.00000 0 2554386.085 12012869.776 22361902.034 10 0 59684 63900.00000 0 -135228.878 11272310.165 22888203.297 10 0 59684 64800.00000 0 -2907758.204 10720196.766 22970319.802 10 0 59684 65700.00000 0 -5695516.357 10371362.318 22606720.573 10 0 59684 66600.00000 0 -8429443.137 10228568.888 21804510.102 10 0 59684 67500.00000 0 -11041733.125 10282459.817 20579287.520 10 0 59684 68400.00000 0 -13468417.557 10512037.021 18954843.137 10 0 59684 69300.00000 0 -15651792.529 10885643.106 16962698.129 10 0 59684 70200.00000 0 -17542593.852 11362406.762 14641495.952 10 0 59684 71100.00000 0 -19101829.209 11894090.582 12036256.749 10 0 59684 72000.00000 0 -20302192.252 12427263.602 9197508.677 10 0 59684 72900.00000 0 -21129000.556 12905707.200 6180312.391 10 0 59684 73800.00000 0 -21580619.013 13272953.023 3043197.072 10 0 59684 74700.00000 0 -21668351.488 13474845.917 -152971.645 10 0 59684 75600.00000 0 -21415805.829 13462023.570 -3346170.158 10 0 59684 76500.00000 0 -20857759.216 13192207.800 -6474419.000 10 0 59684 77400.00000 0 -20038571.837 12632210.237 -9476985.102 10 0 59684 78300.00000 0 -19010215.793 11759566.918 -12295560.761 10 0 59684 79200.00000 0 -17830002.300 10563731.819 -14875396.304 10 0 59684 80100.00000 0 -16558102.915 9046777.813 -17166364.222 10 0 59684 81000.00000 0 -15254969.103 7223574.137 -19123934.080 10 0 59684 81900.00000 0 -13978758.649 5121431.323 -20710039.236 10 0 59684 82800.00000 0 -12782877.094 2779226.919 -21893818.535 10 0 59684 83700.00000 0 -11713737.421 246046.948 -22652218.625 10 0 59684 84600.00000 0 -10808831.984 -2420601.712 -22970445.241 10 0 59684 85500.00000 0 -10095197.599 -5156934.809 -22842254.591 99